This is the latest recevied weather packets stored in our database for station/object LZ3SV-3. If no packets are shown the sender has not sent any weather packets the latest 10 day(s).
| Time | Temp. | Humidity | Pressure | Rain* | Wind** | Luminosity | Snow |
|---|---|---|---|---|---|---|---|
| 1777703459 | 7.78° C | 70% | 997.2 hPa | - | - | - | - |
| 1777701659 | 7.22° C | 76% | 997.2 hPa | - | - | - | - |
| 1777697457 | 5.56° C | 85% | 997 hPa | - | - | - | - |
| 1777683657 | 4.44° C | 84% | 997.2 hPa | - | - | - | - |
| 1777682454 | 4.44° C | 85% | 997.4 hPa | - | - | - | - |
| 1777676454 | 5.56° C | 81% | 998.2 hPa | - | - | - | - |
| 1777671653 | 6.11° C | 79% | 998.9 hPa | - | - | - | - |
| 1777668054 | 6.67° C | 77% | 998.7 hPa | - | - | - | - |
| 1777656052 | 8.33° C | 83% | 997.9 hPa | - | - | - | - |
| 1777653052 | 8.33° C | 83% | 997.7 hPa | - | - | - | - |
| 1777649451 | 8.89° C | 83% | 997.7 hPa | - | - | - | - |
| 1777648252 | 8.89° C | 82% | 997.8 hPa | - | - | - | - |
| 1777639851 | 10° C | 63% | 997.9 hPa | - | - | - | - |
| 1777639253 | 10° C | 63% | 997.9 hPa | - | - | - | - |
| 1777638651 | 10° C | 61% | 998 hPa | - | - | - | - |
| 1777629651 | 10° C | 68% | 998.5 hPa | - | - | - | - |
| 1777624851 | 8.89° C | 82% | 998.8 hPa | - | - | - | - |
| 1777624251 | 8.89° C | 85% | 998.8 hPa | - | - | - | - |
| 1777620051 | 7.78° C | 85% | 998.7 hPa | - | - | - | - |
| 1777618251 | 7.78° C | 93% | 998.5 hPa | - | - | - | - |
| 1777617050 | 6.67° C | 96% | 998.5 hPa | - | - | - | - |
| 1777611050 | 5.56° C | 100% | 997.9 hPa | - | - | - | - |
| 1777606250 | 5° C | 100% | 997.7 hPa | - | - | - | - |
| 1777605050 | 5° C | 100% | 997.7 hPa | - | - | - | - |
| 1777603250 | 5° C | 100% | 997.5 hPa | - | - | - | - |
* Rain since midnight (hover to see other rain measurements)
** Current wind speed in m/s (hover to see current wind gust speed)